Change the Weather History Date:

Saturday, October 1, 2011

  Actual Average (KARG) Record (KARG)
Temperature  
Mean Temperature 57 °F -  
Max Temperature 68 °F 75 °F 89 °F (2014)
Min Temperature 46 °F 51 °F 42 °F (1999)
Degree Days  
Heating Degree Days 8    
Growing Degree Days 7 (Base 50)    
Moisture  
Dew Point 41 °F    
Average Humidity 58    
Maximum Humidity 87    
Minimum Humidity 28    
Precipitation  
Precipitation 0.00 in - - ()
Sea Level Pressure  
Sea Level Pressure 30.21 in    
Wind  
Wind Speed 8 mph (NNE)    
Max Wind Speed 15 mph    
Max Gust Speed 20 mph    
Visibility 4 miles    
Events      
Averages and records for this station are not official NWS values.
T = Trace of Precipitation, MM = Missing Value Source: NWS Daily Summary

Daily Weather History Graph

Daily Weather History Graph

Search for Another Location

Airport or City:

Trip Planner

Search our weather history database for the weather conditions in past years. The results will help you decide how hot, cold, wet, or windy it might be!

Date:

Astronomy

Oct. 01, 2011 Rise Set
Actual Time 6:57 AM CDT 6:46 PM CDT
Civil Twilight 6:31 AM CDT 7:12 PM CDT
Nautical Twilight 6:01 AM CDT 7:41 PM CDT
Astronomical Twilight 5:31 AM CDT 8:11 PM CDT
Moon 11:54 AM CDT (10/1) 9:53 PM CDT (10/1)
Length of Visible Light 12h 40m
Length of Day
11h 48m
Waxing Crescent, 24% of the Moon is Illuminated
Oct 1
Waxing Crescent
Oct 3
First Quarter
Oct 11
Full
Oct 19
Last Quarter
Oct 26
New

Hourly Weather History & Observations

Time (CDT) Temp. Windchill Dew Point Humidity Pressure Visibility Wind Dir Wind Speed Gust Speed Precip Events Conditions
12:15 AM 50.0 °F - 46.4 °F 87% 30.09 in - WNW 8.1 mph - N/A   Unknown
12:35 AM 50.0 °F - 46.4 °F 87% 30.09 in - WNW 6.9 mph - N/A   Unknown
12:55 AM 50.0 °F - 44.6 °F 82% 30.10 in - WNW 6.9 mph - N/A   Unknown
1:15 AM 50.0 °F - 44.6 °F 82% 30.10 in - Calm Calm - N/A   Unknown
1:35 AM 50.0 °F - 44.6 °F 82% 30.11 in - North 4.6 mph - N/A   Unknown
1:55 AM 53.6 °F - 44.6 °F 72% 30.11 in - North 11.5 mph - N/A   Unknown
2:15 AM 53.6 °F - 44.6 °F 72% 30.12 in - North 9.2 mph - N/A   Unknown
2:35 AM 53.6 °F - 44.6 °F 72% 30.12 in - North 8.1 mph - N/A   Unknown
2:55 AM 51.8 °F - 44.6 °F 76% 30.13 in - North 5.8 mph - N/A   Unknown
3:15 AM 50.0 °F - 44.6 °F 82% 30.13 in - North 6.9 mph - N/A   Unknown
3:35 AM 50.0 °F - 42.8 °F 76% 30.14 in - North 8.1 mph - N/A   Unknown
3:55 AM 50.0 °F - 42.8 °F 76% 30.15 in - North 5.8 mph - N/A   Unknown
4:15 AM 50.0 °F - 42.8 °F 76% 30.15 in - NNE 5.8 mph - N/A   Unknown
4:35 AM 50.0 °F - 42.8 °F 76% 30.16 in - NNE 5.8 mph - N/A   Unknown
4:55 AM 50.0 °F - 42.8 °F 76% 30.17 in - North 4.6 mph - N/A   Unknown
5:15 AM 50.0 °F - 41.0 °F 71% 30.18 in - North 4.6 mph - N/A   Unknown
5:35 AM 48.2 °F - 41.0 °F 76% 30.18 in - North 5.8 mph - N/A   Unknown
5:55 AM 48.2 °F - 41.0 °F 76% 30.19 in 1.2 mi North 5.8 mph - N/A   Haze
6:35 AM 46.4 °F 43.5 °F 41.0 °F 81% 30.22 in - North 5.8 mph - N/A   Unknown
6:55 AM 46.4 °F 43.5 °F 41.0 °F 81% 30.23 in - North 5.8 mph - N/A   Clear
7:15 AM 46.4 °F 43.5 °F 41.0 °F 81% 30.24 in - NNE 5.8 mph - N/A   Clear
7:35 AM 48.2 °F - 42.8 °F 82% 30.25 in - NNE 6.9 mph - N/A   Clear
7:55 AM 50.0 °F - 44.6 °F 82% 30.25 in - NNE 5.8 mph - N/A   Clear
8:15 AM 51.8 °F - 44.6 °F 76% 30.26 in - NE 9.2 mph - N/A   Clear
8:35 AM 53.6 °F - 44.6 °F 72% 30.27 in - NNE 10.4 mph - N/A   Clear
8:55 AM 55.4 °F - 42.8 °F 63% 30.28 in - NE 15.0 mph - N/A   Clear
9:15 AM 55.4 °F - 42.8 °F 63% 30.28 in - ENE 13.8 mph 18.4 mph N/A   Clear
9:35 AM 57.2 °F - 42.8 °F 59% 30.29 in - NE 13.8 mph - N/A   Clear
9:55 AM 57.2 °F - 41.0 °F 55% 30.29 in - NE 10.4 mph - N/A   Clear
10:15 AM 59.0 °F - 41.0 °F 51% 30.30 in 10.0 mi NE 10.4 mph 18.4 mph N/A   Clear
10:35 AM 59.0 °F - 41.0 °F 51% 30.29 in - NE 8.1 mph - N/A   Clear
10:55 AM 60.8 °F - 41.0 °F 48% 30.29 in - NE 10.4 mph 19.6 mph N/A   Clear
11:15 AM 60.8 °F - 39.2 °F 45% 30.29 in - NNE 10.4 mph - N/A   Clear
11:35 AM 62.6 °F - 39.2 °F 42% 30.28 in - NE 11.5 mph - N/A   Clear
11:55 AM 62.6 °F - 39.2 °F 42% 30.28 in - NE 10.4 mph - N/A   Clear
12:35 PM 64.4 °F - 39.2 °F 40% 30.27 in - NE 12.7 mph 16.1 mph N/A   Clear
12:55 PM 64.4 °F - 37.4 °F 37% 30.26 in - North 10.4 mph - N/A   Clear
1:35 PM 64.4 °F - 37.4 °F 37% 30.24 in - North 5.8 mph - N/A   Clear
2:15 PM 68.0 °F - 37.4 °F 33% 30.23 in - NNW 11.5 mph - N/A   Clear
2:35 PM 66.2 °F - 37.4 °F 35% 30.23 in - NNW 9.2 mph - N/A   Clear
2:55 PM 68.0 °F - 37.4 °F 33% 30.23 in - North 8.1 mph - N/A   Clear
3:15 PM 68.0 °F - 35.6 °F 30% 30.22 in - NNE 9.2 mph - N/A   Clear
3:35 PM 68.0 °F - 37.4 °F 33% 30.22 in - NNE 9.2 mph - N/A   Clear
3:55 PM 68.0 °F - 35.6 °F 30% 30.22 in - NNE 9.2 mph - N/A   Clear
4:15 PM 68.0 °F - 33.8 °F 28% 30.21 in 0.5 mi North 6.9 mph - N/A   Haze
4:35 PM 68.0 °F - 35.6 °F 30% 30.22 in - NE 11.5 mph - N/A   Clear
4:55 PM 68.0 °F - 33.8 °F 28% 30.21 in - NE 9.2 mph - N/A   Clear
5:15 PM 68.0 °F - 35.6 °F 30% 30.21 in - NNE 8.1 mph - N/A   Clear
5:35 PM 66.2 °F - 37.4 °F 35% 30.22 in - NNE 8.1 mph - N/A   Clear
5:55 PM 66.2 °F - 39.2 °F 37% 30.22 in - NE 5.8 mph - N/A   Clear
6:15 PM 64.4 °F - 39.2 °F 40% 30.21 in - NE 6.9 mph - N/A   Clear
6:35 PM 60.8 °F - 41.0 °F 48% 30.21 in - NE 6.9 mph - N/A   Clear
6:55 PM 59.0 °F - 39.2 °F 48% 30.21 in - NNE 6.9 mph - N/A   Clear
7:15 PM 59.0 °F - 39.2 °F 48% 30.22 in - NNE 6.9 mph - N/A   Clear
7:35 PM 55.4 °F - 39.2 °F 54% 30.21 in - NE 4.6 mph - N/A   Clear
7:55 PM 57.2 °F - 39.2 °F 51% 30.22 in - NE 5.8 mph - N/A   Clear
8:15 PM 57.2 °F - 37.4 °F 48% 30.22 in - NE 5.8 mph - N/A   Unknown
8:35 PM 55.4 °F - 37.4 °F 51% 30.22 in - NE 6.9 mph - N/A   Clear
8:55 PM 55.4 °F - 37.4 °F 51% 30.23 in - NE 5.8 mph - N/A   Unknown
9:35 PM 51.8 °F - 39.2 °F 62% 30.24 in - NNE 4.6 mph - N/A   Clear
9:55 PM 51.8 °F - 39.2 °F 62% 30.24 in - NNE 5.8 mph - N/A   Clear
10:15 PM 50.0 °F - 39.2 °F 66% 30.25 in - NNE 4.6 mph - N/A   Clear
10:35 PM 50.0 °F - 39.2 °F 66% 30.25 in - North 4.6 mph - N/A   Clear
10:55 PM 48.2 °F - 39.2 °F 71% 30.25 in - North 5.8 mph - N/A   Clear
11:15 PM 48.2 °F - 39.2 °F 71% 30.25 in - NNW 4.6 mph - N/A   Unknown
11:55 PM 48.2 °F - 39.2 °F 71% 30.25 in - NNW 4.6 mph - N/A   Clear